Eagle, CO

5:00 PM MST on January 20, 2018 (GMT -0700)
Eagle County Regional

Weather History for KEGE - December, 2012

Change the Weather History Date:

Thursday, December 13, 2012

  Actual Average Record
Temperature  
Mean Temperature 32 °F -  
Max Temperature 46 °F 33 °F 54 °F (1948)
Min Temperature 19 °F 6 °F -20 °F (1964)
Degree Days  
Heating Degree Days 32    
Moisture  
Dew Point 19 °F    
Average Humidity 73    
Maximum Humidity 93    
Minimum Humidity 29    
Precipitation  
Precipitation 0.00 in - - ()
Sea Level Pressure  
Sea Level Pressure 29.98 in    
Wind  
Wind Speed 2 mph (ESE)    
Max Wind Speed 7 mph    
Max Gust Speed -    
Visibility 10 miles    
Events      
Averages and records for this station are not official NWS values.
T = Trace of Precipitation, MM = Missing Value Source: NWS Daily Summary

Daily Weather History Graph

Daily Weather History Graph

Search for Another Location

Airport or City:

Trip Planner

Search our weather history database for the weather conditions in past years. The results will help you decide how hot, cold, wet, or windy it might be!

Date:

Astronomy

Dec. 13, 2012 Rise Set
Actual Time 7:20 AM MST 4:44 PM MST
Civil Twilight 6:49 AM MST 5:14 PM MST
Nautical Twilight 6:16 AM MST 5:48 PM MST
Astronomical Twilight 5:43 AM MST 6:20 PM MST
Moon 7:31 AM MST (12/13) 5:29 PM MST (12/13)
Length of Visible Light 10h 24m
Length of Day
9h 23m
New Moon, 0% of the Moon is Illuminated
Dec 13
New Moon
Dec 19
First Quarter
Dec 28
Full
Jan 4
Last Quarter
Jan 11
New

Hourly Weather History & Observations

Time (MST) Temp. Windchill Dew Point Humidity Pressure Visibility Wind Dir Wind Speed Gust Speed Precip Events Conditions
12:35 AM 28.4 °F 23.3 °F 21.2 °F 74% 29.96 in 10.0 mi East 4.6 mph - N/A   Clear
1:15 AM 28.4 °F - 21.2 °F 74% 29.97 in 10.0 mi Calm Calm - N/A   Clear
1:35 AM 26.6 °F - 21.2 °F 80% 29.98 in 10.0 mi Calm Calm - N/A   Clear
1:55 AM 26.6 °F - 21.2 °F 80% 29.98 in 10.0 mi Calm Calm - N/A   Clear
2:15 AM 24.8 °F 19.1 °F 19.4 °F 80% 29.98 in 10.0 mi ENE 4.6 mph - N/A   Clear
2:35 AM 26.6 °F 20.0 °F 19.4 °F 74% 29.99 in 10.0 mi East 5.8 mph - N/A   Clear
2:55 AM 26.6 °F - 19.4 °F 74% 29.99 in 10.0 mi Calm Calm - N/A   Clear
3:15 AM 26.6 °F - 19.4 °F 74% 29.99 in 10.0 mi Calm Calm - N/A   Clear
3:55 AM 26.6 °F - 19.4 °F 74% 29.99 in 10.0 mi Calm Calm - N/A   Clear
4:15 AM 24.8 °F - 19.4 °F 80% 29.99 in 10.0 mi Calm Calm - N/A   Clear
4:35 AM 23.0 °F - 17.6 °F 80% 30.00 in 10.0 mi Calm Calm - N/A   Clear
4:55 AM 24.8 °F - 19.4 °F 80% 30.00 in 10.0 mi Calm Calm - N/A   Clear
5:15 AM 23.0 °F - 17.6 °F 80% 30.01 in 10.0 mi Calm Calm - N/A   Clear
5:35 AM 21.2 °F - 17.6 °F 86% 30.01 in 10.0 mi Calm Calm - N/A   Clear
5:55 AM 21.2 °F 16.4 °F 17.6 °F 86% 30.02 in 10.0 mi ESE 3.5 mph - N/A   Clear
6:15 AM 23.0 °F 17.0 °F 17.6 °F 80% 30.02 in 10.0 mi East 4.6 mph - N/A   Clear
6:35 AM 21.2 °F 12.6 °F 17.6 °F 86% 30.02 in 10.0 mi East 6.9 mph - N/A   Clear
6:50 AM 21.2 °F - 17.6 °F 86% 30.03 in 10.0 mi Calm Calm - N/A   Mostly Cloudy
7:50 AM 23.0 °F - 17.6 °F 80% 30.03 in 10.0 mi Calm Calm - N/A   Mostly Cloudy
8:50 AM 26.6 °F - 19.4 °F 74% 30.03 in 10.0 mi Calm Calm - N/A   Scattered Clouds
9:55 AM 32.0 °F - 19.4 °F 60% 30.03 in 10.0 mi Calm Calm - N/A   Mostly Cloudy
10:50 AM 35.6 °F - 19.4 °F 52% 30.01 in 10.0 mi Calm Calm - N/A   Scattered Clouds
12:50 PM 46.4 °F 45.2 °F 15.8 °F 29% 29.95 in 10.0 mi SW 3.5 mph - N/A   Scattered Clouds
4:50 PM 37.4 °F 32.8 °F 21.2 °F 52% 29.91 in 10.0 mi South 5.8 mph - N/A   Scattered Clouds
5:50 PM 33.8 °F 28.6 °F 21.2 °F 60% 29.91 in 10.0 mi East 5.8 mph - N/A   Scattered Clouds
6:50 PM 33.8 °F 30.8 °F 19.4 °F 56% 29.92 in 10.0 mi SE 3.5 mph - N/A   Scattered Clouds
7:50 PM 30.2 °F - 19.4 °F 64% 29.93 in 10.0 mi Calm Calm - N/A   Scattered Clouds
8:50 PM 37.4 °F - 19.4 °F 48% 29.94 in 10.0 mi Calm Calm - N/A   Scattered Clouds
9:50 PM 24.8 °F - 17.6 °F 74% 29.94 in 10.0 mi Calm Calm - N/A   Scattered Clouds
10:50 PM 21.2 °F - 17.6 °F 86% 29.94 in 10.0 mi Calm Calm - N/A   Scattered Clouds
11:15 PM 21.2 °F 13.6 °F 17.6 °F 86% 29.93 in 10.0 mi ESE 5.8 mph - N/A   Clear
11:35 PM 19.4 °F 12.8 °F 17.6 °F 93% 29.93 in 10.0 mi ESE 4.6 mph - N/A   Clear
11:55 PM 21.2 °F - 15.8 °F 80% 29.93 in 10.0 mi Calm Calm - N/A   Clear